Time,TemperatureF,DewpointF,PressureIn,WindDirection,WindDirectionDegrees,WindSpeedMPH,WindSpeedGustMPH,Humidity,HourlyPrecipIn,Conditions,Clouds,dailyrainin,SoftwareType,DateUTC
2013-02-22 00:02:00,54.0,-99.9,30.14,NE,52,9.0,11.0,-999,-99.99,,,-99.99,,2013-02-22 05:02:00,
2013-02-22 00:12:00,54.0,-99.9,30.15,NE,34,7.0,10.0,-999,-99.99,,,-99.99,,2013-02-22 05:12:00,
2013-02-22 00:22:00,54.0,-99.9,30.14,NE,36,8.0,10.0,-999,-99.99,,,-99.99,,2013-02-22 05:22:00,
2013-02-22 00:32:00,54.0,-99.9,30.14,NE,53,8.0,10.0,-999,-99.99,,,-99.99,,2013-02-22 05:32:00,
2013-02-22 00:42:00,55.0,-99.9,30.14,ENE,64,11.0,13.0,-999,-99.99,,,-99.99,,2013-02-22 05:42:00,
2013-02-22 00:52:00,55.0,-99.9,30.13,NE,54,12.0,15.0,-999,-99.99,,,-99.99,,2013-02-22 05:52:00,
2013-02-22 01:02:00,55.0,-99.9,30.13,NE,56,11.0,15.0,-999,-99.99,,,-99.99,,2013-02-22 06:02:00,
2013-02-22 01:12:00,55.0,-99.9,30.14,NE,52,12.0,15.0,-999,-99.99,,,-99.99,,2013-02-22 06:12:00,
2013-02-22 01:22:00,55.0,-99.9,30.14,NE,47,11.0,14.0,-999,-99.99,,,-99.99,,2013-02-22 06:22:00,
2013-02-22 01:32:00,55.0,-99.9,30.15,NE,50,9.0,13.0,-999,-99.99,,,-99.99,,2013-02-22 06:32:00,
2013-02-22 01:42:00,55.0,-99.9,30.13,NE,54,11.0,13.0,-999,-99.99,,,-99.99,,2013-02-22 06:42:00,
2013-02-22 01:52:00,55.0,-99.9,30.13,ENE,59,12.0,16.0,-999,-99.99,,,-99.99,,2013-02-22 06:52:00,
2013-02-22 02:01:00,55.0,-99.9,30.13,NE,54,12.0,14.0,-999,-99.99,,,-99.99,,2013-02-22 07:01:00,
2013-02-22 02:11:00,55.0,-99.9,30.14,NE,43,9.0,11.0,-999,-99.99,,,-99.99,,2013-02-22 07:11:00,
2013-02-22 02:22:00,55.0,-99.9,30.14,NE,39,8.0,13.0,-999,-99.99,,,-99.99,,2013-02-22 07:22:00,
2013-02-22 02:32:00,55.0,-99.9,30.14,NE,43,9.0,12.0,-999,-99.99,,,-99.99,,2013-02-22 07:32:00,
2013-02-22 02:42:00,55.0,-99.9,30.13,NE,47,10.0,12.0,-999,-99.99,,,-99.99,,2013-02-22 07:42:00,
2013-02-22 02:52:00,55.0,-99.9,30.14,NE,42,8.0,14.0,-999,-99.99,,,-99.99,,2013-02-22 07:52:00,
2013-02-22 03:11:00,55.0,-99.9,30.14,NE,51,11.0,14.0,-999,-99.99,,,-99.99,,2013-02-22 08:11:00,
2013-02-22 03:21:00,55.0,-99.9,30.14,NNE,30,11.0,13.0,-999,-99.99,,,-99.99,,2013-02-22 08:21:00,
2013-02-22 03:32:00,55.0,-99.9,30.14,NNE,25,11.0,14.0,-999,-99.99,,,-99.99,,2013-02-22 08:32:00,
2013-02-22 03:42:00,55.0,-99.9,30.14,NNE,30,11.0,14.0,-999,-99.99,,,-99.99,,2013-02-22 08:42:00,
2013-02-22 03:52:00,53.0,-99.9,30.13,NNE,19,9.0,14.0,-999,-99.99,,,-99.99,,2013-02-22 08:52:00,
2013-02-22 04:03:00,55.0,-99.9,30.13,NNE,32,12.0,15.0,-999,-99.99,,,-99.99,,2013-02-22 09:03:00,
2013-02-22 04:11:00,55.0,-99.9,30.13,NE,36,14.0,17.0,-999,-99.99,,,-99.99,,2013-02-22 09:11:00,
2013-02-22 04:22:00,55.0,-99.9,30.13,NE,36,14.0,17.0,-999,-99.99,,,-99.99,,2013-02-22 09:22:00,
2013-02-22 04:32:00,55.0,-99.9,30.13,NE,43,13.0,19.0,-999,-99.99,,,-99.99,,2013-02-22 09:32:00,
2013-02-22 04:42:00,55.0,-99.9,30.13,NE,38,14.0,17.0,-999,-99.99,,,-99.99,,2013-02-22 09:42:00,
2013-02-22 04:52:00,55.0,-99.9,30.13,NE,43,14.0,22.0,-999,-99.99,,,-99.99,,2013-02-22 09:52:00,
2013-02-22 05:01:00,55.0,-99.9,30.13,NE,37,14.0,20.0,-999,-99.99,,,-99.99,,2013-02-22 10:01:00,
2013-02-22 05:11:00,55.0,-99.9,30.14,NE,40,16.0,22.0,-999,-99.99,,,-99.99,,2013-02-22 10:11:00,
2013-02-22 05:22:00,55.0,-99.9,30.13,NE,39,15.0,21.0,-999,-99.99,,,-99.99,,2013-02-22 10:22:00,
2013-02-22 05:32:00,54.0,-99.9,30.13,NE,43,16.0,20.0,-999,-99.99,,,-99.99,,2013-02-22 10:32:00,
2013-02-22 05:42:00,54.0,-99.9,30.14,NE,41,15.0,19.0,-999,-99.99,,,-99.99,,2013-02-22 10:42:00,
2013-02-22 05:52:00,54.0,-99.9,30.14,NNE,33,17.0,24.0,-999,-99.99,,,-99.99,,2013-02-22 10:52:00,
2013-02-22 06:01:00,54.0,-99.9,30.14,NE,41,17.0,25.0,-999,-99.99,,,-99.99,,2013-02-22 11:01:00,
2013-02-22 06:11:00,54.0,-99.9,30.15,NE,34,15.0,25.0,-999,-99.99,,,-99.99,,2013-02-22 11:11:00,
2013-02-22 06:22:00,54.0,-99.9,30.14,NE,34,21.0,26.0,-999,-99.99,,,-99.99,,2013-02-22 11:22:00,
2013-02-22 06:32:00,53.0,-99.9,30.14,NE,34,20.0,24.0,-999,-99.99,,,-99.99,,2013-02-22 11:32:00,
2013-02-22 06:42:00,53.0,-99.9,30.15,NE,37,19.0,28.0,-999,-99.99,,,-99.99,,2013-02-22 11:42:00,
2013-02-22 06:52:00,53.0,-99.9,30.15,NE,40,22.0,30.0,-999,-99.99,,,-99.99,,2013-02-22 11:52:00,
2013-02-22 07:02:00,53.0,-99.9,30.15,NE,41,20.0,28.0,-999,-99.99,,,-99.99,,2013-02-22 12:02:00,
2013-02-22 07:11:00,52.0,-99.9,30.16,NE,38,25.0,33.0,-999,-99.99,,,-99.99,,2013-02-22 12:11:00,
2013-02-22 07:22:00,52.0,-99.9,30.16,NE,36,21.0,26.0,-999,-99.99,,,-99.99,,2013-02-22 12:22:00,
2013-02-22 07:32:00,51.0,-99.9,30.16,NE,44,19.0,30.0,-999,-99.99,,,-99.99,,2013-02-22 12:32:00,
2013-02-22 07:42:00,51.0,-99.9,30.18,NE,43,22.0,28.0,-999,-99.99,,,-99.99,,2013-02-22 12:42:00,
2013-02-22 07:52:00,51.0,-99.9,30.18,NE,42,18.0,26.0,-999,-99.99,,,-99.99,,2013-02-22 12:52:00,
2013-02-22 08:02:00,51.0,-99.9,30.17,NE,50,19.0,25.0,-999,-99.99,,,-99.99,,2013-02-22 13:02:00,
2013-02-22 08:11:00,51.0,-99.9,30.17,NE,54,18.0,29.0,-999,-99.99,,,-99.99,,2013-02-22 13:11:00,
2013-02-22 08:22:00,51.0,-99.9,30.16,ENE,62,23.0,29.0,-999,-99.99,,,-99.99,,2013-02-22 13:22:00,
2013-02-22 08:32:00,51.0,-99.9,30.16,NE,54,22.0,28.0,-999,-99.99,,,-99.99,,2013-02-22 13:32:00,
2013-02-22 08:42:00,51.0,-99.9,30.17,NE,53,20.0,29.0,-999,-99.99,,,-99.99,,2013-02-22 13:42:00,
2013-02-22 08:52:00,52.0,-99.9,30.17,NE,53,17.0,28.0,-999,-99.99,,,-99.99,,2013-02-22 13:52:00,
2013-02-22 09:01:00,52.0,-99.9,30.16,NE,53,25.0,35.0,-999,-99.99,,,-99.99,,2013-02-22 14:01:00,
2013-02-22 09:11:00,52.0,-99.9,30.16,NE,53,23.0,31.0,-999,-99.99,,,-99.99,,2013-02-22 14:11:00,
2013-02-22 09:22:00,52.0,-99.9,30.17,NE,52,19.0,27.0,-999,-99.99,,,-99.99,,2013-02-22 14:22:00,
2013-02-22 09:32:00,53.0,-99.9,30.17,ENE,59,20.0,28.0,-999,-99.99,,,-99.99,,2013-02-22 14:32:00,
2013-02-22 09:42:00,53.0,-99.9,30.17,ENE,63,20.0,27.0,-999,-99.99,,,-99.99,,2013-02-22 14:42:00,
2013-02-22 09:53:00,53.0,-99.9,30.17,ENE,64,22.0,28.0,-999,-99.99,,,-99.99,,2013-02-22 14:53:00,
2013-02-22 10:02:00,53.0,-99.9,30.17,NE,55,19.0,28.0,-999,-99.99,,,-99.99,,2013-02-22 15:02:00,
2013-02-22 10:12:00,54.0,-99.9,30.16,ENE,59,16.0,24.0,-999,-99.99,,,-99.99,,2013-02-22 15:12:00,
2013-02-22 10:22:00,54.0,-99.9,30.16,NE,48,18.0,25.0,-999,-99.99,,,-99.99,,2013-02-22 15:22:00,
2013-02-22 10:32:00,54.0,-99.9,30.16,NE,48,18.0,22.0,-999,-99.99,,,-99.99,,2013-02-22 15:32:00,
2013-02-22 10:42:00,54.0,-99.9,30.15,NE,55,17.0,26.0,-999,-99.99,,,-99.99,,2013-02-22 15:42:00,
2013-02-22 10:52:00,54.0,-99.9,30.16,NE,46,18.0,25.0,-999,-99.99,,,-99.99,,2013-02-22 15:52:00,
2013-02-22 11:02:00,55.0,-99.9,30.16,NE,45,15.0,26.0,-999,-99.99,,,-99.99,,2013-02-22 16:02:00,
2013-02-22 11:12:00,55.0,-99.9,30.16,NE,42,14.0,19.0,-999,-99.99,,,-99.99,,2013-02-22 16:12:00,
2013-02-22 11:22:00,55.0,-99.9,30.16,NE,38,15.0,22.0,-999,-99.99,,,-99.99,,2013-02-22 16:22:00,
2013-02-22 11:32:00,54.0,-99.9,30.16,NE,37,14.0,18.0,-999,-99.99,,,-99.99,,2013-02-22 16:32:00,
2013-02-22 11:42:00,55.0,-99.9,30.17,NE,45,12.0,17.0,-999,-99.99,,,-99.99,,2013-02-22 16:42:00,
2013-02-22 11:52:00,55.0,-99.9,30.16,NE,42,13.0,16.0,-999,-99.99,,,-99.99,,2013-02-22 16:52:00,
2013-02-22 12:01:00,55.0,-99.9,30.15,NE,44,13.0,16.0,-999,-99.99,,,-99.99,,2013-02-22 17:01:00,
2013-02-22 12:12:00,55.0,-99.9,30.14,NE,55,14.0,21.0,-999,-99.99,,,-99.99,,2013-02-22 17:12:00,
2013-02-22 12:22:00,55.0,-99.9,30.13,NE,51,17.0,20.0,-999,-99.99,,,-99.99,,2013-02-22 17:22:00,
2013-02-22 12:32:00,56.0,-99.9,30.14,NE,47,15.0,21.0,-999,-99.99,,,-99.99,,2013-02-22 17:32:00,
2013-02-22 12:42:00,56.0,-99.9,30.15,NNE,27,13.0,18.0,-999,-99.99,,,-99.99,,2013-02-22 17:42:00,
2013-02-22 12:52:00,56.0,-99.9,30.14,NNE,30,14.0,18.0,-999,-99.99,,,-99.99,,2013-02-22 17:52:00,
2013-02-22 13:02:00,56.0,-99.9,30.14,NE,40,12.0,15.0,-999,-99.99,,,-99.99,,2013-02-22 18:02:00,
2013-02-22 13:12:00,56.0,-99.9,30.13,NE,55,12.0,14.0,-999,-99.99,,,-99.99,,2013-02-22 18:12:00,
2013-02-22 13:23:00,57.0,-99.9,30.12,ENE,65,14.0,16.0,-999,-99.99,,,-99.99,,2013-02-22 18:23:00,
2013-02-22 13:32:00,57.0,-99.9,30.12,ENE,78,10.0,15.0,-999,-99.99,,,-99.99,,2013-02-22 18:32:00,
2013-02-22 13:42:00,57.0,-99.9,30.12,ENE,78,10.0,15.0,-999,-99.99,,,-99.99,,2013-02-22 18:42:00,
2013-02-22 13:52:00,57.0,-99.9,30.12,ENE,78,10.0,15.0,-999,-99.99,,,-99.99,,2013-02-22 18:52:00,
2013-02-22 14:01:00,57.0,-99.9,30.12,ENE,78,10.0,15.0,-999,-99.99,,,-99.99,,2013-02-22 19:01:00,
2013-02-22 14:42:00,58.0,-99.9,30.06,ESE,108,17.0,19.0,-999,-99.99,,,-99.99,,2013-02-22 19:42:00,
2013-02-22 14:52:00,59.0,-99.9,30.05,SE,132,18.0,20.0,-999,-99.99,,,-99.99,,2013-02-22 19:52:00,
2013-02-22 15:01:00,60.0,-99.9,30.05,ESE,122,17.0,22.0,-999,-99.99,,,-99.99,,2013-02-22 20:01:00,
2013-02-22 15:11:00,59.0,-99.9,30.06,ESE,119,12.0,17.0,-999,-99.99,,,-99.99,,2013-02-22 20:11:00,
2013-02-22 15:22:00,59.0,-99.9,30.06,ESE,117,13.0,15.0,-999,-99.99,,,-99.99,,2013-02-22 20:22:00,
2013-02-22 15:32:00,60.0,-99.9,30.06,SSE,151,7.0,12.0,-999,-99.99,,,-99.99,,2013-02-22 20:32:00,
2013-02-22 15:42:00,61.0,-99.9,30.06,SE,135,11.0,13.0,-999,-99.99,,,-99.99,,2013-02-22 20:42:00,
2013-02-22 15:52:00,61.0,-99.9,30.06,SE,145,10.0,11.0,-999,-99.99,,,-99.99,,2013-02-22 20:52:00,
2013-02-22 16:02:00,61.0,-99.9,30.06,SSE,154,7.0,9.0,-999,-99.99,,,-99.99,,2013-02-22 21:02:00,
2013-02-22 16:11:00,62.0,-99.9,30.06,SSE,150,9.0,14.0,-999,-99.99,,,-99.99,,2013-02-22 21:11:00,
2013-02-22 16:22:00,62.0,-99.9,30.06,SSE,151,8.0,12.0,-999,-99.99,,,-99.99,,2013-02-22 21:22:00,
2013-02-22 16:32:00,62.0,-99.9,30.05,SSE,150,7.0,10.0,-999,-99.99,,,-99.99,,2013-02-22 21:32:00,
2013-02-22 16:42:00,62.0,-99.9,30.04,SSE,153,7.0,11.0,-999,-99.99,,,-99.99,,2013-02-22 21:42:00,
2013-02-22 16:52:00,62.0,-99.9,30.04,SSE,157,10.0,12.0,-999,-99.99,,,-99.99,,2013-02-22 21:52:00,
2013-02-22 17:01:00,62.0,-99.9,30.04,SSE,157,8.0,12.0,-999,-99.99,,,-99.99,,2013-02-22 22:01:00,
2013-02-22 17:11:00,62.0,-99.9,30.04,SSE,158,8.0,10.0,-999,-99.99,,,-99.99,,2013-02-22 22:11:00,
2013-02-22 17:22:00,62.0,-99.9,30.04,SSE,155,7.0,10.0,-999,-99.99,,,-99.99,,2013-02-22 22:22:00,
2013-02-22 17:32:00,62.0,-99.9,30.04,SSE,151,7.0,11.0,-999,-99.99,,,-99.99,,2013-02-22 22:32:00,
2013-02-22 17:42:00,62.0,-99.9,30.04,SSE,153,9.0,11.0,-999,-99.99,,,-99.99,,2013-02-22 22:42:00,
2013-02-22 17:52:00,62.0,-99.9,30.04,SSE,159,9.0,11.0,-999,-99.99,,,-99.99,,2013-02-22 22:52:00,
2013-02-22 18:01:00,62.0,-99.9,30.04,SSE,157,9.0,11.0,-999,-99.99,,,-99.99,,2013-02-22 23:01:00,
2013-02-22 18:11:00,62.0,-99.9,30.04,SSE,161,8.0,11.0,-999,-99.99,,,-99.99,,2013-02-22 23:11:00,
2013-02-22 18:21:00,62.0,-99.9,30.04,SSE,162,9.0,11.0,-999,-99.99,,,-99.99,,2013-02-22 23:21:00,
2013-02-22 18:32:00,62.0,-99.9,30.04,SSE,162,9.0,11.0,-999,-99.99,,,-99.99,,2013-02-22 23:32:00,
2013-02-22 18:42:00,63.0,-99.9,30.04,SSE,161,11.0,14.0,-999,-99.99,,,-99.99,,2013-02-22 23:42:00,
2013-02-22 18:52:00,63.0,-99.9,30.04,SSE,161,11.0,14.0,-999,-99.99,,,-99.99,,2013-02-22 23:52:00,
2013-02-22 19:02:00,63.0,-99.9,30.04,SSE,166,11.0,13.0,-999,-99.99,,,-99.99,,2013-02-23 00:02:00,
2013-02-22 19:11:00,62.0,-99.9,30.04,South,172,8.0,10.0,-999,-99.99,,,-99.99,,2013-02-23 00:11:00,
2013-02-22 19:22:00,63.0,-99.9,30.05,South,185,7.0,9.0,-999,-99.99,,,-99.99,,2013-02-23 00:22:00,
2013-02-22 19:32:00,60.0,-99.9,30.05,NNW,344,8.0,11.0,-999,-99.99,,,-99.99,,2013-02-23 00:32:00,
2013-02-22 19:42:00,58.0,-99.9,30.05,NNW,334,5.0,11.0,-999,-99.99,,,-99.99,,2013-02-23 00:42:00,
2013-02-22 19:52:00,57.0,-99.9,30.04,North,355,6.0,9.0,-999,-99.99,,,-99.99,,2013-02-23 00:52:00,
2013-02-22 20:01:00,57.0,-99.9,30.05,North,352,7.0,10.0,-999,-99.99,,,-99.99,,2013-02-23 01:01:00,
2013-02-22 20:11:00,56.0,-99.9,30.05,North,-999,4.0,8.0,-999,-99.99,,,-99.99,,2013-02-23 01:11:00,
2013-02-22 20:22:00,56.0,-99.9,30.06,NNW,347,9.0,11.0,-999,-99.99,,,-99.99,,2013-02-23 01:22:00,
2013-02-22 20:32:00,55.0,-99.9,30.05,North,3,5.0,7.0,-999,-99.99,,,-99.99,,2013-02-23 01:32:00,
2013-02-22 20:42:00,55.0,-99.9,30.05,NNW,347,7.0,9.0,-999,-99.99,,,-99.99,,2013-02-23 01:42:00,
2013-02-22 20:52:00,55.0,-99.9,30.06,NNW,339,11.0,12.0,-999,-99.99,,,-99.99,,2013-02-23 01:52:00,
2013-02-22 21:01:00,55.0,-99.9,30.06,North,359,4.0,8.0,-999,-99.99,,,-99.99,,2013-02-23 02:01:00,
2013-02-22 21:11:00,55.0,-99.9,30.05,North,352,2.0,5.0,-999,-99.99,,,-99.99,,2013-02-23 02:11:00,
2013-02-22 21:22:00,55.0,-99.9,30.06,NNW,330,7.0,9.0,-999,-99.99,,,-99.99,,2013-02-23 02:22:00,
2013-02-22 21:32:00,55.0,-99.9,30.06,NNW,332,7.0,9.0,-999,-99.99,,,-99.99,,2013-02-23 02:32:00,
2013-02-22 21:42:00,54.0,-99.9,30.06,NNW,340,9.0,11.0,-999,-99.99,,,-99.99,,2013-02-23 02:42:00,
2013-02-22 21:52:00,54.0,-99.9,30.06,NNW,344,7.0,11.0,-999,-99.99,,,-99.99,,2013-02-23 02:52:00,
2013-02-22 22:02:00,53.0,-99.9,30.06,NNW,336,7.0,9.0,-999,-99.99,,,-99.99,,2013-02-23 03:02:00,
2013-02-22 22:11:00,53.0,-99.9,30.07,NNW,336,8.0,12.0,-999,-99.99,,,-99.99,,2013-02-23 03:11:00,
2013-02-22 22:22:00,53.0,-99.9,30.07,NNW,342,9.0,11.0,-999,-99.99,,,-99.99,,2013-02-23 03:22:00,
2013-02-22 22:32:00,52.0,-99.9,30.06,North,356,6.0,10.0,-999,-99.99,,,-99.99,,2013-02-23 03:32:00,
2013-02-22 22:42:00,51.0,-99.9,30.06,North,353,7.0,11.0,-999,-99.99,,,-99.99,,2013-02-23 03:42:00,
2013-02-22 22:52:00,51.0,-99.9,30.06,NNW,338,9.0,12.0,-999,-99.99,,,-99.99,,2013-02-23 03:52:00,
2013-02-22 23:01:00,51.0,-99.9,30.06,NNW,345,9.0,13.0,-999,-99.99,,,-99.99,,2013-02-23 04:01:00,
2013-02-22 23:11:00,51.0,-99.9,30.06,North,354,5.0,10.0,-999,-99.99,,,-99.99,,2013-02-23 04:11:00,
2013-02-22 23:22:00,51.0,-99.9,30.06,NNW,346,6.0,11.0,-999,-99.99,,,-99.99,,2013-02-23 04:22:00,
2013-02-22 23:32:00,50.0,-99.9,30.06,NNW,346,8.0,11.0,-999,-99.99,,,-99.99,,2013-02-23 04:32:00,
2013-02-22 23:42:00,50.0,-99.9,30.06,NNW,347,9.0,15.0,-999,-99.99,,,-99.99,,2013-02-23 04:42:00,
2013-02-22 23:52:00,50.0,-99.9,30.06,NNW,334,8.0,13.0,-999,-99.99,,,-99.99,,2013-02-23 04:52:00,